Regional Weather Roundup
Issued by NWS Portland, ME

Current Version | Previous Version | Text Only | Print | Product List | Glossary Off
Versions: 1 2 3 4 5 6 7 8 9 10 11 12 13 14 15 16 17 18 19 20 21 22 23 24 25 26 27 28 29 30 31 32 33 34 35 36 37 38 39 40 41 42 43 44 45 46 47 48 49 50
608 ASUS41 KGYX 210110 RWRGYX WEATHER ROUNDUP FOR MAINE AND NEW HAMPSHIRE NATIONAL WEATHER SERVICE GRAY ME 800 PM EST MON NOV 20 2017 MEZ002-005-006-010-012-015-018-020-021-024-026-027-029-210200- MAINE CITY SKY/WX TMP DP RH WIND PRES REMARKS PORTLAND CLEAR 33 21 61 W13G21 29.95R SANFORD N/A 34 23 64 W9 29.97R WISCASSET PTCLDY 30 15 53 VRB7 29.95R ROCKLAND CLEAR 28 15 58 NW6 29.94R FRYEBURG PTCLDY 31 17 56 W9G18 29.93R LEWISTONAUBURN CLEAR 28 15 58 NW10 29.94R WCI 19 AUGUSTA CLEAR 26 9 48 NW12G23 29.94R WCI 16 WATERVILLE CLEAR 24 10 55 NW12G21 29.90R WCI 13 BANGOR PTCLDY 23 8 52 NW15G26 29.92R WCI 10 GREENVILLE N/A 11 2 67 NW13G29 29.82R WCI -4 MILLINOCKET CLEAR 16 3 56 NW17G40 29.89R WCI 0 HOULTON PTCLDY 16 4 59 W13 29.83R WCI 2 PRESQUE ISLE PTCLDY 16 7 67 W13 29.82R WCI 2 FRENCHVILLE PTCLDY 13 4 67 W16G24 29.74R WCI -3 CARIBOU CLOUDY 18 6 59 W12G21 29.78R WCI 5 $$ NHZ002-005-008-009-011-012-014-210200- NEW HAMPSHIRE CITY SKY/WX TMP DP RH WIND PRES REMARKS PORTSMOUTH MOCLDY 38 21 51 W10 29.95R ROCHESTER CLOUDY 35 23 61 NW9 29.95R NASHUA MOCLDY 37 24 59 W6 29.99R MANCHESTER MOCLDY 38 23 55 SW9 29.96R CONCORD CLOUDY 37 23 56 NW8 29.96R LACONIA MOCLDY 30 23 75 W8 29.96R PLYMOUTH CLOUDY 30 22 73 W8 29.96S BERLIN PTCLDY 20 12 71 CALM 29.93R WHITEFIELD CLOUDY 23 16 74 SW3 29.97R JAFFREY CLOUDY 36 25 64 VRB5 29.97R KEENE CLOUDY 36 25 64 VRB3 29.99R LEBANON CLOUDY 32 26 78 N6 29.97R MT WASHINGTON SNOWSHWR 0 0 100 W72G89 N/A VSB 0 WCI -36 $$ VTZ005-007-008-210200- VERMONT CITY SKY/WX TMP DP RH WIND PRES REMARKS ST JOHNSBURY N/A 23 17 78 MISG 29.98R MONTPELIER FLURRIES 22 21 96 CALM 29.99R BURLINGTON CLOUDY 26 20 77 E5 30.01R $$ MAZ007-012-024-CTZ003-RIZ002-NYZ038-NYZ072-210200- SOUTHERN NEW ENGLAND AND NY CITY SKY/WX TMP DP RH WIND PRES REMARKS BOSTON PTCLDY 40 23 50 SW12G22 30.01R WORCESTER MOCLDY 35 23 61 W14G23 29.98R NANTUCKET PTCLDY 44 27 51 W18G26 30.06R PROVIDENCE MOCLDY 42 26 53 SW7 30.06R HARTFORD CLOUDY 41 26 55 SW6 30.05R ALBANY CLOUDY 37 29 72 CALM 30.04F NEW YORK CITY PTCLDY 45 23 42 SW16G22 30.11R $$ ANZ081-ANZ082-ANZ150-NHZ014-MEZ023>029-210200- COASTAL MARINE OBSERVATIONS STATION/POSITION TIME TEMP WIND PRES WAVE AIR SEA DIR/SP/G HT/PER (UTC) (F) (DEG/KT/KT) (MB) (FT/S) MOUNT DESERT ROC 0000 35 280/ 37/ 41 1010.9R MATINICUS ROCK 0000 35 310/ 21/ 23 1011.6R ISLE OF SHOALS 0000 40 250/ 25/ 27 1013.4R JEFFREYS LEDGE 0036 50 N/A 6/ 5 CASHES LEDGE BUO 2350 42 51 1011.8 9/ 6 GEORGES BANK BUO 2350 45 53 1014.2 14/10 $$ .............KEY.............. WCI - WIND CHILL TC - TEMPERATURE IN CELSIUS VSB - VISIBILITY IN MILES HX - HEAT INDEX FAIR- INDICATES FEW OR NO CLOUDS BELOW 12,000 FT, WITH NO SIGNIFICANT WEATHER AND/OR OBSTRUCTIONS TO VISIBILITY.

USA.gov is the U.S. government's official web portal to all federal, state and local government web resources and services.